map of CCU home
CCU - Airport
Location
City:  Kolkata, West Bengal, India
Near (Alt.):Calcutta
Name:Netaji Subhash Chandra Bose International Airport
Old (Alt.):Dum Dum Airport
ICAO:VECC
IATA:CCU

Details
Type:Airport (Aerodrome, Airfield)
Use:Public/Civil, International (customs port of entry)
Latitude:22°39'17"N (22.654739)
Longitude:88°26'48"E (88.446722)
Datum:WGS 1984
Elevation:16 ft (5 m)
Variation:0.23°W (WMM2015 magnetic declination)
0.05° annual change
Runways:2
Longest:11900 × 150 ft (3627 × 45.5 m), paved

Time
Time Zone:UTC+5:30
Local Time:

Weather
METAR:VECC 220730Z 36008KT 3500 HZ FEW020 26/08 Q1010 NOSIG
TAF:VECC 220500Z 2206/2312 35005KT 3500 HZ NSC
BECMG 2218/2220 2200 HZ
BECMG 2302/2304 3500 HZ

Related Locations
Nearby:
Farthest:SCFX: 11682 mi / 18800 km
Isla San Félix, Desventuradas Islands, VS, CL

Find:

   beyond  
but within

Other Information
Maps:
NOTAMs:
Links:
Sources:

  
flag of India   

Sectional Chart

Flight Planning
at skyvector.com

Satellite Image

Google Maps Satellite view

 

Copyright © 2004-2017 Karl L. Swartz. All rights reserved.
The Great Circle Mapper name and logo are trademarks of the Great Circle Mapper.
All other trademarks mentioned herein belong to their respective owners.
Please see credits for attibutions and further copyright information.

  Follow gcmap on Facebook Follow gcmap on Twitter Follow gcmap on Google+ GCmap on LinkedIn

hCard Microformat

Geo Microformat